Regional Weather Roundup
Issued by NWS Little Rock, AR

Home | Current Version | Previous Version | Text Only | Print | Product List | Glossary On
Versions: 1 2 3 4 5 6 7 8 9 10 11 12 13 14 15 16 17 18 19 20 21 22 23 24 25 26 27 28 29 30 31 32 33 34 35 36 37 38 39 40 41 42 43 44 45 46 47 48 49 50
000
ASUS44 KLZK 230405
RWRLZK

WEATHER ROUNDUP FOR ARKANSAS
NATIONAL WEATHER SERVICE LITTLE ROCK AR
1000 PM CST MON JAN 22 2018

NOTE: "FAIR" INDICATES FEW OR NO CLOUDS BELOW 12,000 FEET WITH NO
SIGNIFICANT WEATHER AND/OR OBSTRUCTIONS TO VISIBILITY.

ARZ001-003-010-029-230500-
NORTHWEST ARKANSAS

CITY           SKY/WX    TMP DP  RH WIND       PRES   REMARKS
FAYETTEVILLE   CLOUDY    41  28  60 W17G28    29.89R
FORT SMITH     PTCLDY    45  28  51 W18       29.94R
HARRISON       CLOUDY    39  26  59 W18G31    29.81R
BENTONVILLE    CLOUDY    38  27  64 NW23G33   29.90R
ROGERS         CLOUDY    38  27  64 W22G35    29.88R
SILOAM SPGS    CLOUDY    40  28  62 NW16      29.91R
HIGHFILL       LGT RAIN  39  28  64 NW18G35   29.88R
$$

ARZ004-005-016-230500-
NORTH CENTRAL ARKANSAS

CITY           SKY/WX    TMP DP  RH WIND       PRES   REMARKS
BATESVILLE     CLOUDY    47  27  45 W14       29.83R
FLIPPIN        CLOUDY    43  27  53 W23G33    29.82R
MTN HOME       CLOUDY    41  28  60 NW14G25   29.79R
$$

ARZ040-041-230500-
WEST CENTRAL ARKANSAS

CITY           SKY/WX    TMP DP  RH WIND       PRES   REMARKS
MENA           CLEAR     46  28  49 W17G26    29.96R
$$

ARZ009-017-025-026-028-230500-
NORTHEAST ARKANSAS

CITY           SKY/WX    TMP DP  RH WIND       PRES   REMARKS
JONESBORO      CLOUDY    47  32  56 SW23      29.81R
NEWPORT        FAIR      46  29  51 W16G24    29.83R
WALNUT RIDGE   CLOUDY    46  28  49 W12       29.80R
BLYTHEVILLE    CLOUDY    48  33  56 SW14G26   29.81S
$$

ARZ022-023-033-042-044-230500-
CENTRAL ARKANSAS

CITY           SKY/WX    TMP DP  RH WIND       PRES   REMARKS
LITTLE ROCK    FAIR      45  28  51 W12G21    29.91R
N LITTLE ROCK    N/A     45  30  55 W9G18     29.84R
JACKSONVILLE   FAIR      46  29  51 W14G20    29.89R
SEARCY         CLOUDY    47  29  49 MISG        N/A
HOT SPRINGS    FAIR      47  28  47 W10       29.93S
RUSSELLVILLE   CLOUDY    47  27  45 W23G35    29.88R
CLINTON        CLOUDY    46  27  46 W8G16     29.85R
$$

ARZ036-230500-
EAST ARKANSAS

CITY           SKY/WX    TMP DP  RH WIND       PRES   REMARKS
WEST MEMPHIS   MOCLDY    48  31  51 W12G21    29.87R
$$

ARZ050-053-066-070-073-230500-
SOUTHWEST ARKANSAS

CITY           SKY/WX    TMP DP  RH WIND       PRES   REMARKS
ARKADELPHIA    FAIR      46  29  51 W10       29.98R
CAMDEN         FAIR      46  27  46 SW6       30.00R
TEXARKANA      FAIR      48  26  42 W10       30.03R
EL DORADO      FAIR      46  31  55 SW6       30.02R
DE QUEEN       CLEAR     45  28  51 W10       29.99R
$$

ARZ056-057-069-230500-
SOUTHEAST ARKANSAS

CITY           SKY/WX    TMP DP  RH WIND       PRES   REMARKS
PINE BLUFF     FAIR      46  29  51 SW9       29.95R
STUTTGART      FAIR      46  31  55 W18G24    29.93R
MONTICELLO     FAIR      48  28  46 SW8       29.97R

$$





USA.gov is the U.S. government's official web portal to all federal, state and local government web resources and services.